DLH62Q EDDF-EDDS

Flight info

Callsign DLH62Q
Flight time 0h 21m
Altitude 17000
Route ANEKI2L/18 ANEKI Y163 NEKLO Y171 INKAM N850 KRH T128 BADSO BADSO2A
Aircraft A320/M-SDE3FGHIRWY/LB1

Departure

Time 2026-04-15 16:38
Airport Frankfurt Main Airport (EDDF)

Arrival

Time 2026-04-15 16:59
Airport Stuttgart Airport (EDDS)
Time Latitude Longitude Altitude Speed Heading
2026-04-15 16:16 50.03743 8.52771 355 ft 0 kts 339°
2026-04-15 16:31 50.03741 8.52772 356 ft 2 kts 339°
2026-04-15 16:32 50.03725 8.52782 356 ft 2 kts 339°
2026-04-15 16:32 50.03709 8.52791 357 ft 2 kts 339°
2026-04-15 16:32 50.03693 8.52800 356 ft 2 kts 339°
2026-04-15 16:32 50.03677 8.52810 359 ft 2 kts 339°
2026-04-15 16:33 50.03661 8.52819 356 ft 2 kts 339°
2026-04-15 16:33 50.03645 8.52827 358 ft 2 kts 320°
2026-04-15 16:33 50.03637 8.52843 359 ft 0 kts 265°
2026-04-15 16:35 50.03618 8.52719 360 ft 21 kts 250°
2026-04-15 16:35 50.03595 8.52526 356 ft 16 kts 270°
2026-04-15 16:35 50.03570 8.52384 358 ft 9 kts 249°
2026-04-15 16:36 50.03539 8.52309 358 ft 7 kts 207°
2026-04-15 16:36 50.03478 8.52307 356 ft 15 kts 180°
2026-04-15 16:36 50.03400 8.52358 357 ft 12 kts 107°
2026-04-15 16:36 50.03399 8.52460 358 ft 4 kts 89°
2026-04-15 16:37 50.03400 8.52530 358 ft 10 kts 89°
2026-04-15 16:37 50.03360 8.52594 361 ft 9 kts 179°
2026-04-15 16:37 50.03352 8.52594 359 ft 0 kts 179°
2026-04-15 16:37 50.03276 8.52595 362 ft 41 kts 179°
2026-04-15 16:38 50.02738 8.52601 359 ft 111 kts 180°
2026-04-15 16:38 50.01759 8.52605 360 ft 164 kts 181°
2026-04-15 16:38 50.00629 8.52604 982 ft 164 kts 179°
2026-04-15 16:38 49.99487 8.52665 1725 ft 166 kts 178°
2026-04-15 16:39 49.98253 8.52753 2150 ft 186 kts 178°
2026-04-15 16:39 49.96882 8.52853 2456 ft 209 kts 177°
2026-04-15 16:39 49.95358 8.52962 3040 ft 223 kts 177°
2026-04-15 16:39 49.93804 8.53069 3970 ft 225 kts 177°
2026-04-15 16:40 49.92233 8.53180 4888 ft 227 kts 177°
2026-04-15 16:40 49.90643 8.53293 5783 ft 230 kts 178°
2026-04-15 16:40 49.89028 8.53407 6647 ft 234 kts 178°
2026-04-15 16:40 49.87409 8.53523 7446 ft 238 kts 178°
2026-04-15 16:41 49.85716 8.53640 8265 ft 242 kts 179°
2026-04-15 16:41 49.84046 8.53756 9080 ft 246 kts 179°
2026-04-15 16:41 49.82318 8.53874 9925 ft 250 kts 180°
2026-04-15 16:41 49.80561 8.53990 10710 ft 254 kts 180°
2026-04-15 16:42 49.78762 8.54108 11502 ft 257 kts 180°
2026-04-15 16:42 49.76981 8.54008 12092 ft 268 kts 187°
2026-04-15 16:42 49.75037 8.53749 12386 ft 292 kts 187°
2026-04-15 16:42 49.72930 8.53459 12645 ft 316 kts 187°
2026-04-15 16:43 49.70665 8.53147 12863 ft 339 kts 187°
2026-04-15 16:43 49.68233 8.52815 13028 ft 361 kts 187°
2026-04-15 16:43 49.65687 8.52474 13500 ft 372 kts 186°
2026-04-15 16:43 49.63074 8.52131 14145 ft 377 kts 186°
2026-04-15 16:44 49.60457 8.51792 14765 ft 381 kts 186°
2026-04-15 16:44 49.57796 8.51451 15086 ft 384 kts 186°
2026-04-15 16:44 49.55114 8.51104 15179 ft 393 kts 186°
2026-04-15 16:44 49.52321 8.50735 15194 ft 410 kts 186°
2026-04-15 16:45 49.49452 8.50356 15193 ft 416 kts 186°
2026-04-15 16:45 49.46569 8.49977 15193 ft 417 kts 186°
2026-04-15 16:45 49.43675 8.49599 15193 ft 417 kts 186°
2026-04-15 16:45 49.40784 8.49218 15192 ft 418 kts 186°
2026-04-15 16:46 49.37881 8.48838 15192 ft 418 kts 186°
2026-04-15 16:46 49.34978 8.48460 15191 ft 418 kts 186°
2026-04-15 16:46 49.32070 8.48354 15189 ft 419 kts 178°
2026-04-15 16:46 49.29174 8.48961 15188 ft 421 kts 169°
2026-04-15 16:47 49.26368 8.50278 14983 ft 422 kts 159°
2026-04-15 16:47 49.23755 8.52308 14753 ft 422 kts 149°
2026-04-15 16:47 49.21283 8.54710 14503 ft 421 kts 149°
2026-04-15 16:47 49.18798 8.57066 14260 ft 419 kts 152°
2026-04-15 16:48 49.16143 8.58852 14026 ft 415 kts 163°
2026-04-15 16:48 49.13351 8.59847 13704 ft 411 kts 173°
2026-04-15 16:48 49.10521 8.60074 13039 ft 403 kts 184°
2026-04-15 16:48 49.07781 8.59695 12402 ft 397 kts 187°
2026-04-15 16:49 49.05058 8.59276 11753 ft 391 kts 187°
2026-04-15 16:49 49.02384 8.58876 11459 ft 378 kts 186°
2026-04-15 16:49 48.99829 8.58527 11332 ft 360 kts 184°
2026-04-15 16:49 48.97374 8.58657 11209 ft 345 kts 176°
2026-04-15 16:50 48.95031 8.58947 11077 ft 330 kts 176°
2026-04-15 16:50 48.92783 8.59216 10968 ft 318 kts 176°
2026-04-15 16:50 48.90614 8.59470 10843 ft 306 kts 177°
2026-04-15 16:50 48.88529 8.59717 10694 ft 297 kts 176°
2026-04-15 16:51 48.86486 8.59962 10507 ft 291 kts 176°
2026-04-15 16:51 48.84478 8.60276 10429 ft 291 kts 170°
2026-04-15 16:51 48.82561 8.61250 10319 ft 292 kts 154°
2026-04-15 16:51 48.80882 8.62975 10184 ft 293 kts 139°
2026-04-15 16:52 48.79508 8.65308 9581 ft 299 kts 129°
2026-04-15 16:52 48.78246 8.67766 8983 ft 292 kts 129°
2026-04-15 16:52 48.77011 8.70173 8361 ft 287 kts 129°
2026-04-15 16:52 48.75790 8.72536 7734 ft 283 kts 129°
2026-04-15 16:53 48.74583 8.74859 7241 ft 279 kts 128°
2026-04-15 16:53 48.73391 8.77148 6936 ft 275 kts 129°
2026-04-15 16:53 48.72214 8.79404 6567 ft 272 kts 128°
2026-04-15 16:53 48.71043 8.81646 6238 ft 268 kts 128°
2026-04-15 16:54 48.69897 8.83836 5941 ft 263 kts 129°
2026-04-15 16:54 48.68778 8.85971 5690 ft 256 kts 128°
2026-04-15 16:54 48.67687 8.88053 5428 ft 249 kts 129°
2026-04-15 16:54 48.66623 8.90081 5181 ft 243 kts 128°
2026-04-15 16:55 48.65588 8.92054 4973 ft 236 kts 129°
2026-04-15 16:55 48.64690 8.94082 4731 ft 230 kts 114°
2026-04-15 16:55 48.64309 8.96394 4500 ft 225 kts 92°
2026-04-15 16:55 48.64496 8.98727 4223 ft 224 kts 74°
2026-04-15 16:56 48.64932 9.00991 3930 ft 224 kts 74°
2026-04-15 16:56 48.65368 9.03247 3621 ft 220 kts 74°
2026-04-15 16:56 48.65779 9.05392 3322 ft 210 kts 74°
2026-04-15 16:56 48.66174 9.07440 3095 ft 194 kts 74°
2026-04-15 16:57 48.66539 9.09335 2828 ft 180 kts 75°
2026-04-15 16:57 48.66864 9.11057 2595 ft 161 kts 74°
2026-04-15 16:57 48.67165 9.12631 2313 ft 150 kts 75°
2026-04-15 16:57 48.67448 9.14110 2115 ft 144 kts 76°
2026-04-15 16:58 48.67725 9.15561 1919 ft 143 kts 75°
2026-04-15 16:58 48.67997 9.16994 1746 ft 142 kts 74°
2026-04-15 16:58 48.68269 9.18425 1573 ft 141 kts 75°
2026-04-15 16:58 48.68543 9.19853 1381 ft 141 kts 75°
2026-04-15 16:59 48.68808 9.21248 1273 ft 128 kts 73°
2026-04-15 16:59 48.69008 9.22298 1247 ft 84 kts 74°
2026-04-15 16:59 48.69134 9.22887 1226 ft 30 kts 54°
2026-04-15 16:59 48.69244 9.23066 1221 ft 24 kts 44°
2026-04-15 17:00 48.69349 9.23156 1218 ft 15 kts 357°
2026-04-15 17:00 48.69405 9.23063 1219 ft 11 kts 276°
2026-04-15 17:00 48.69395 9.22970 1221 ft 7 kts 255°
2026-04-15 17:00 48.69378 9.22885 1224 ft 17 kts 253°
2026-04-15 17:01 48.69332 9.22640 1229 ft 26 kts 253°
2026-04-15 17:01 48.69283 9.22381 1239 ft 25 kts 253°
2026-04-15 17:01 48.69235 9.22133 1242 ft 24 kts 255°
2026-04-15 17:01 48.69191 9.21895 1259 ft 23 kts 253°
2026-04-15 17:02 48.69148 9.21669 1263 ft 22 kts 254°
2026-04-15 17:02 48.69106 9.21450 1258 ft 21 kts 253°
2026-04-15 17:02 48.69066 9.21238 1263 ft 20 kts 255°
2026-04-15 17:02 48.69027 9.21035 1270 ft 20 kts 253°
2026-04-15 17:03 48.68989 9.20840 1274 ft 19 kts 253°
2026-04-15 17:03 48.68960 9.20652 1277 ft 17 kts 279°
2026-04-15 17:03 48.69036 9.20514 1279 ft 17 kts 315°
2026-04-15 17:03 48.69047 9.20364 1284 ft 14 kts 254°
2026-04-15 17:04 48.69021 9.20226 1287 ft 13 kts 253°
2026-04-15 17:04 48.68971 9.20142 1287 ft 12 kts 171°
2026-04-15 17:04 48.68935 9.20156 1287 ft 0 kts 164°